Time,TemperatureF,DewpointF,PressureIn,WindDirection,WindDirectionDegrees,WindSpeedMPH,WindSpeedGustMPH,Humidity,HourlyPrecipIn,Conditions,Clouds,dailyrainin,SolarRadiationWatts/m^2,SoftwareType,DateUTC
2014-12-26 00:02:00,46.2,35.8,30.08,WNW,300,0.0,0.0,67,0.00,CLR,,0.00,0.0,WeatherDisplay:10.37,2014-12-26 08:02:00,
2014-12-26 00:07:00,46.1,36.1,30.08,WNW,300,3.5,3.5,68,0.00,CLR,,0.00,0.0,WeatherDisplay:10.37,2014-12-26 08:07:00,
2014-12-26 00:12:00,46.2,36.2,30.08,WNW,299,2.3,2.3,68,0.00,CLR,,0.00,0.0,WeatherDisplay:10.37,2014-12-26 08:12:00,
2014-12-26 00:17:00,46.2,35.8,30.08,WNW,300,0.0,0.0,67,0.00,CLR,,0.00,0.0,WeatherDisplay:10.37,2014-12-26 08:17:00,
2014-12-26 00:22:00,46.1,35.7,30.08,WNW,300,0.0,0.0,67,0.00,CLR,,0.00,0.0,WeatherDisplay:10.37,2014-12-26 08:22:00,
2014-12-26 00:27:00,46.0,36.0,30.08,WNW,300,0.0,0.0,68,0.00,CLR,,0.00,0.0,WeatherDisplay:10.37,2014-12-26 08:27:00,
2014-12-26 00:32:00,46.0,35.7,30.08,WNW,300,0.0,0.0,67,0.00,CLR,,0.00,0.0,WeatherDisplay:10.37,2014-12-26 08:32:00,
2014-12-26 00:37:00,45.8,35.5,30.08,WNW,300,0.0,0.0,67,0.00,CLR,,0.00,0.0,WeatherDisplay:10.37,2014-12-26 08:37:00,
2014-12-26 00:42:00,45.7,35.7,30.08,WNW,300,0.0,0.0,68,0.00,CLR,,0.00,0.0,WeatherDisplay:10.37,2014-12-26 08:42:00,
2014-12-26 00:47:00,45.4,35.1,30.08,WNW,300,0.0,0.0,67,0.00,CLR,,0.00,0.0,WeatherDisplay:10.37,2014-12-26 08:47:00,
2014-12-26 00:52:00,45.4,35.5,30.08,WNW,300,0.0,0.0,68,0.00,CLR,,0.00,0.0,WeatherDisplay:10.37,2014-12-26 08:52:00,
2014-12-26 00:57:00,45.5,34.8,30.08,WNW,300,0.0,0.0,66,0.00,CLR,,0.00,0.0,WeatherDisplay:10.37,2014-12-26 08:57:00,
2014-12-26 01:02:00,45.7,34.2,30.08,WNW,300,0.0,0.0,64,0.00,CLR,,0.00,0.0,WeatherDisplay:10.37,2014-12-26 09:02:00,
2014-12-26 01:07:00,45.8,34.3,30.08,WNW,300,0.0,0.0,64,0.00,CLR,,0.00,0.0,WeatherDisplay:10.37,2014-12-26 09:07:00,
2014-12-26 01:12:00,45.7,34.2,30.08,WNW,300,0.0,0.0,64,0.00,CLR,,0.00,0.0,WeatherDisplay:10.37,2014-12-26 09:12:00,
2014-12-26 01:17:00,45.8,33.9,30.08,WNW,300,1.2,0.0,63,0.00,CLR,,0.00,0.0,WeatherDisplay:10.37,2014-12-26 09:17:00,
2014-12-26 01:22:00,46.1,33.8,30.08,WNW,300,0.0,0.0,62,0.00,CLR,,0.00,0.0,WeatherDisplay:10.37,2014-12-26 09:22:00,
2014-12-26 01:27:00,46.1,33.8,30.08,WNW,301,0.0,0.0,62,0.00,CLR,,0.00,0.0,WeatherDisplay:10.37,2014-12-26 09:27:00,
2014-12-26 01:32:00,46.2,33.5,30.08,WNW,300,0.0,0.0,61,0.00,CLR,,0.00,0.0,WeatherDisplay:10.37,2014-12-26 09:32:00,
2014-12-26 01:37:00,46.7,33.5,30.08,South,180,3.5,3.5,60,0.00,CLR,,0.00,0.0,WeatherDisplay:10.37,2014-12-26 09:37:00,
2014-12-26 01:42:00,46.8,33.2,30.08,South,180,0.0,0.0,59,0.00,CLR,,0.00,0.0,WeatherDisplay:10.37,2014-12-26 09:42:00,
2014-12-26 01:47:00,47.3,32.8,30.08,South,181,0.0,0.0,57,0.00,CLR,,0.00,0.0,WeatherDisplay:10.37,2014-12-26 09:47:00,
2014-12-26 01:52:00,47.6,32.7,30.08,South,180,0.0,0.0,56,0.00,CLR,,0.00,0.0,WeatherDisplay:10.37,2014-12-26 09:52:00,
2014-12-26 01:57:00,47.9,32.5,30.08,South,180,0.0,0.0,55,0.00,CLR,,0.00,0.0,WeatherDisplay:10.37,2014-12-26 09:57:00,
2014-12-26 02:02:00,47.7,32.3,30.09,South,180,0.0,0.0,55,0.00,CLR,,0.00,0.0,WeatherDisplay:10.37,2014-12-26 10:02:00,
2014-12-26 02:07:00,47.6,32.2,30.09,South,180,1.2,1.2,55,0.00,CLR,,0.00,0.0,WeatherDisplay:10.37,2014-12-26 10:07:00,
2014-12-26 02:12:00,47.6,31.8,30.09,South,181,0.0,0.0,54,0.00,CLR,,0.00,0.0,WeatherDisplay:10.37,2014-12-26 10:12:00,
2014-12-26 02:17:00,47.9,31.1,30.09,South,183,3.5,0.0,52,0.00,CLR,,0.00,0.0,WeatherDisplay:10.37,2014-12-26 10:17:00,
2014-12-26 02:22:00,47.9,31.6,30.09,South,182,0.0,0.0,53,0.00,CLR,,0.00,0.0,WeatherDisplay:10.37,2014-12-26 10:22:00,
2014-12-26 02:27:00,47.6,31.8,30.09,South,183,0.0,0.0,54,0.00,CLR,,0.00,0.0,WeatherDisplay:10.37,2014-12-26 10:27:00,
2014-12-26 02:32:00,47.3,31.5,30.09,South,183,0.0,0.5,54,0.00,CLR,,0.00,0.0,WeatherDisplay:10.37,2014-12-26 10:32:00,
2014-12-26 02:37:00,47.1,30.8,30.09,South,185,3.5,3.5,53,0.00,CLR,,0.00,0.0,WeatherDisplay:10.37,2014-12-26 10:37:00,
2014-12-26 02:42:00,47.4,30.6,30.09,South,185,0.0,0.0,52,0.00,CLR,,0.00,0.0,WeatherDisplay:10.37,2014-12-26 10:42:00,
2014-12-26 02:47:00,48.2,30.4,30.09,West,262,9.2,9.2,50,0.00,CLR,,0.00,0.0,WeatherDisplay:10.37,2014-12-26 10:47:00,
2014-12-26 02:52:00,48.3,30.5,30.09,West,262,4.6,4.6,50,0.00,CLR,,0.00,0.0,WeatherDisplay:10.37,2014-12-26 10:52:00,
2014-12-26 02:57:00,48.2,30.4,30.09,West,260,5.0,5.0,50,0.00,CLR,,0.00,0.0,WeatherDisplay:10.37,2014-12-26 10:57:00,
2014-12-26 03:02:00,48.0,30.7,30.09,West,260,2.3,0.0,51,0.00,CLR,,0.00,0.0,WeatherDisplay:10.37,2014-12-26 11:02:00,
2014-12-26 03:07:00,47.7,30.9,30.09,West,260,3.5,3.5,52,0.00,CLR,,0.00,0.0,WeatherDisplay:10.37,2014-12-26 11:07:00,
2014-12-26 03:12:00,47.3,30.5,30.09,West,260,0.0,0.0,52,0.00,CLR,,0.00,0.0,WeatherDisplay:10.37,2014-12-26 11:12:00,
2014-12-26 03:17:00,47.0,31.2,30.10,West,260,0.0,0.0,54,0.00,CLR,,0.00,0.0,WeatherDisplay:10.37,2014-12-26 11:17:00,
2014-12-26 03:22:00,46.5,31.2,30.10,West,260,0.0,0.0,55,0.00,CLR,,0.00,0.0,WeatherDisplay:10.37,2014-12-26 11:22:00,
2014-12-26 03:27:00,46.1,31.3,30.10,West,260,0.0,0.0,56,0.00,CLR,,0.00,0.0,WeatherDisplay:10.37,2014-12-26 11:27:00,
2014-12-26 03:32:00,45.7,31.3,30.10,West,260,0.0,0.1,57,0.00,CLR,,0.00,0.0,WeatherDisplay:10.37,2014-12-26 11:32:00,
2014-12-26 03:37:00,45.4,31.0,30.10,West,260,0.0,0.0,57,0.00,CLR,,0.00,0.0,WeatherDisplay:10.37,2014-12-26 11:37:00,
2014-12-26 03:42:00,44.9,31.0,30.10,West,260,0.0,0.0,58,0.00,CLR,,0.00,0.0,WeatherDisplay:10.37,2014-12-26 11:42:00,
2014-12-26 03:47:00,44.5,31.1,30.10,West,260,0.0,0.0,59,0.00,CLR,,0.00,0.0,WeatherDisplay:10.37,2014-12-26 11:47:00,
2014-12-26 03:52:00,44.1,31.1,30.10,West,260,0.0,0.0,60,0.00,CLR,,0.00,0.0,WeatherDisplay:10.37,2014-12-26 11:52:00,
2014-12-26 03:57:00,44.2,31.2,30.10,West,260,3.5,3.5,60,0.00,CLR,,0.00,0.0,WeatherDisplay:10.37,2014-12-26 11:57:00,
2014-12-26 04:02:00,44.3,30.9,30.11,West,260,0.0,0.6,59,0.00,CLR,,0.00,0.0,WeatherDisplay:10.37,2014-12-26 12:02:00,
2014-12-26 04:07:00,44.5,30.6,30.11,WSW,258,4.6,4.6,58,0.00,CLR,,0.00,0.0,WeatherDisplay:10.37,2014-12-26 12:07:00,
2014-12-26 04:12:00,44.6,30.3,30.11,WSW,258,3.5,3.5,57,0.00,CLR,,0.00,0.0,WeatherDisplay:10.37,2014-12-26 12:12:00,
2014-12-26 04:17:00,44.8,30.5,30.11,WSW,257,4.0,4.0,57,0.00,CLR,,0.00,0.0,WeatherDisplay:10.37,2014-12-26 12:17:00,
2014-12-26 04:22:00,44.9,30.1,30.11,WSW,240,4.6,4.6,56,0.00,CLR,,0.00,0.0,WeatherDisplay:10.37,2014-12-26 12:22:00,
2014-12-26 04:27:00,45.4,30.2,30.11,WSW,251,6.9,6.9,55,0.00,CLR,,0.00,0.0,WeatherDisplay:10.37,2014-12-26 12:27:00,
2014-12-26 04:32:00,45.5,29.8,30.11,WSW,251,5.0,5.0,54,0.00,CLR,,0.00,0.0,WeatherDisplay:10.37,2014-12-26 12:32:00,
2014-12-26 04:37:00,45.7,30.0,30.11,WSW,251,4.6,4.6,54,0.00,CLR,,0.00,0.0,WeatherDisplay:10.37,2014-12-26 12:37:00,
2014-12-26 04:42:00,45.7,30.0,30.11,WSW,251,4.6,4.6,54,0.00,CLR,,0.00,0.0,WeatherDisplay:10.37,2014-12-26 12:42:00,
2014-12-26 04:47:00,45.5,30.3,30.11,WSW,251,5.8,5.8,55,0.00,CLR,,0.00,0.0,WeatherDisplay:10.37,2014-12-26 12:47:00,
2014-12-26 04:52:00,45.2,30.0,30.11,WSW,251,4.6,4.6,55,0.00,CLR,,0.00,0.0,WeatherDisplay:10.37,2014-12-26 12:52:00,
2014-12-26 04:57:00,45.2,30.0,30.11,WSW,251,4.6,4.6,55,0.00,CLR,,0.00,0.0,WeatherDisplay:10.37,2014-12-26 12:57:00,
2014-12-26 05:02:00,45.5,29.8,30.11,WSW,251,3.5,3.5,54,0.00,CLR,,0.00,0.0,WeatherDisplay:10.37,2014-12-26 13:02:00,
2014-12-26 05:07:00,45.7,29.5,30.11,WSW,250,3.5,3.5,53,0.00,CLR,,0.00,0.0,WeatherDisplay:10.37,2014-12-26 13:07:00,
2014-12-26 05:12:00,45.5,29.3,30.11,SSW,202,4.6,5.1,53,0.00,CLR,,0.00,0.0,WeatherDisplay:10.37,2014-12-26 13:12:00,
2014-12-26 05:17:00,46.0,29.3,30.12,SSW,195,4.6,0.0,52,0.00,CLR,,0.00,0.0,WeatherDisplay:10.37,2014-12-26 13:17:00,
2014-12-26 05:22:00,46.1,29.4,30.12,WSW,245,3.5,4.3,52,0.00,CLR,,0.00,0.0,WeatherDisplay:10.37,2014-12-26 13:22:00,
2014-12-26 05:27:00,46.4,28.8,30.12,WNW,285,1.2,0.0,50,0.00,CLR,,0.00,0.0,WeatherDisplay:10.37,2014-12-26 13:27:00,
2014-12-26 05:32:00,46.5,28.8,30.12,WNW,285,0.0,0.0,50,0.00,CLR,,0.00,0.0,WeatherDisplay:10.37,2014-12-26 13:32:00,
2014-12-26 05:37:00,46.5,29.3,30.12,WNW,285,0.0,0.0,51,0.00,CLR,,0.00,0.0,WeatherDisplay:10.37,2014-12-26 13:37:00,
2014-12-26 05:42:00,46.2,29.1,30.12,WNW,285,0.0,0.0,51,0.00,CLR,,0.00,0.0,WeatherDisplay:10.37,2014-12-26 13:42:00,
2014-12-26 05:47:00,46.1,29.0,30.12,WNW,285,0.0,0.0,51,0.00,CLR,,0.00,0.0,WeatherDisplay:10.37,2014-12-26 13:47:00,
2014-12-26 05:52:00,46.0,28.9,30.12,WNW,285,0.0,0.0,51,0.00,CLR,,0.00,0.0,WeatherDisplay:10.37,2014-12-26 13:52:00,
2014-12-26 05:57:00,45.7,29.1,30.12,WNW,285,0.0,0.0,52,0.00,CLR,,0.00,0.0,WeatherDisplay:10.37,2014-12-26 13:57:00,
2014-12-26 06:02:00,45.5,28.4,30.12,WNW,285,0.0,0.0,51,0.00,CLR,,0.00,0.0,WeatherDisplay:10.37,2014-12-26 14:02:00,
2014-12-26 06:07:00,45.5,28.9,30.12,WNW,285,1.0,1.0,52,0.00,CLR,,0.00,0.0,WeatherDisplay:10.37,2014-12-26 14:07:00,
2014-12-26 06:12:00,45.5,28.9,30.12,WNW,285,0.0,0.0,52,0.00,CLR,,0.00,0.0,WeatherDisplay:10.37,2014-12-26 14:12:00,
2014-12-26 06:17:00,45.7,28.6,30.12,WNW,285,2.3,2.3,51,0.00,CLR,,0.00,0.0,WeatherDisplay:10.37,2014-12-26 14:17:00,
2014-12-26 06:22:00,45.7,29.1,30.12,WNW,285,2.3,2.3,52,0.00,CLR,,0.00,0.0,WeatherDisplay:10.37,2014-12-26 14:22:00,
2014-12-26 06:27:00,45.7,28.1,30.12,WNW,285,0.0,0.0,50,0.00,CLR,,0.00,0.0,WeatherDisplay:10.37,2014-12-26 14:27:00,
2014-12-26 06:32:00,46.4,28.3,30.13,WNW,285,0.0,0.0,49,0.00,CLR,,0.00,0.0,WeatherDisplay:10.37,2014-12-26 14:32:00,
2014-12-26 06:37:00,47.0,27.8,30.13,WNW,285,0.0,1.2,47,0.00,CLR,,0.00,0.0,WeatherDisplay:10.37,2014-12-26 14:37:00,
2014-12-26 06:42:00,47.7,26.8,30.13,NNE,31,5.8,5.8,44,0.00,CLR,,0.00,0.0,WeatherDisplay:10.37,2014-12-26 14:42:00,
2014-12-26 06:47:00,48.3,27.9,30.13,NNE,32,0.0,0.0,45,0.00,CLR,,0.00,0.0,WeatherDisplay:10.37,2014-12-26 14:47:00,
2014-12-26 06:52:00,48.2,27.8,30.13,NNE,31,1.2,1.2,45,0.00,CLR,,0.00,0.0,WeatherDisplay:10.37,2014-12-26 14:52:00,
2014-12-26 06:57:00,47.7,27.9,30.13,NNE,31,0.0,0.0,46,0.00,CLR,,0.00,0.0,WeatherDisplay:10.37,2014-12-26 14:57:00,
2014-12-26 07:02:00,47.6,28.3,30.14,NNE,31,0.0,0.0,47,0.00,CLR,,0.00,0.0,WeatherDisplay:10.37,2014-12-26 15:02:00,
2014-12-26 07:07:00,47.0,28.3,30.14,NNE,31,0.0,0.0,48,0.00,CLR,,0.00,0.0,WeatherDisplay:10.37,2014-12-26 15:07:00,
2014-12-26 07:12:00,47.3,27.5,30.14,West,262,4.6,4.6,46,0.00,CLR,,0.00,0.0,WeatherDisplay:10.37,2014-12-26 15:12:00,
2014-12-26 07:17:00,47.7,26.8,30.14,West,265,3.5,3.7,44,0.00,CLR,,0.00,0.0,WeatherDisplay:10.37,2014-12-26 15:17:00,
2014-12-26 07:22:00,48.0,27.1,30.14,West,265,0.0,0.0,44,0.00,CLR,,0.00,5.0,WeatherDisplay:10.37,2014-12-26 15:22:00,
2014-12-26 07:27:00,48.0,27.1,30.14,West,267,0.0,0.0,44,0.00,CLR,,0.00,7.0,WeatherDisplay:10.37,2014-12-26 15:27:00,
2014-12-26 07:32:00,48.0,27.1,30.15,West,266,5.8,5.8,44,0.00,CLR,,0.00,11.0,WeatherDisplay:10.37,2014-12-26 15:32:00,
2014-12-26 07:37:00,48.3,26.8,30.15,West,268,3.5,3.5,43,0.00,CLR,,0.00,12.0,WeatherDisplay:10.37,2014-12-26 15:37:00,
2014-12-26 07:42:00,48.8,26.7,30.15,West,268,0.0,0.0,42,0.00,CLR,,0.00,14.0,WeatherDisplay:10.37,2014-12-26 15:42:00,
2014-12-26 07:47:00,49.1,27.0,30.14,West,268,0.0,0.0,42,0.00,CLR,,0.00,18.0,WeatherDisplay:10.37,2014-12-26 15:47:00,
2014-12-26 07:52:00,49.4,27.2,30.14,West,268,0.0,0.0,42,0.00,CLR,,0.00,25.0,WeatherDisplay:10.37,2014-12-26 15:52:00,
2014-12-26 07:57:00,49.4,27.2,30.14,West,268,1.2,0.0,42,0.00,CLR,,0.00,32.0,WeatherDisplay:10.37,2014-12-26 15:57:00,
2014-12-26 08:02:00,49.6,26.8,30.15,West,268,3.5,3.5,41,0.00,CLR,,0.00,42.0,WeatherDisplay:10.37,2014-12-26 16:02:00,
2014-12-26 08:08:00,49.8,27.0,30.15,West,267,4.6,4.6,41,0.00,CLR,,0.00,53.0,WeatherDisplay:10.37,2014-12-26 16:08:00,
2014-12-26 08:13:00,49.8,28.2,30.15,West,267,4.6,0.0,43,0.00,CLR,,0.00,67.0,WeatherDisplay:10.37,2014-12-26 16:13:00,
2014-12-26 08:18:00,50.1,27.9,30.15,West,267,0.0,0.5,42,0.00,CLR,,0.00,81.0,WeatherDisplay:10.37,2014-12-26 16:18:00,
2014-12-26 08:23:00,50.2,26.8,30.15,West,262,4.6,4.6,40,0.00,CLR,,0.00,98.0,WeatherDisplay:10.37,2014-12-26 16:23:00,
2014-12-26 08:28:00,50.5,27.7,30.15,West,262,0.0,0.0,41,0.00,CLR,,0.00,113.0,WeatherDisplay:10.37,2014-12-26 16:28:00,
2014-12-26 08:33:00,50.8,28.5,30.17,West,262,0.0,0.0,42,0.00,CLR,,0.00,127.0,WeatherDisplay:10.37,2014-12-26 16:33:00,
2014-12-26 08:38:00,50.5,27.7,30.17,West,262,3.5,3.5,41,0.00,CLR,,0.00,144.0,WeatherDisplay:10.37,2014-12-26 16:38:00,
2014-12-26 08:43:00,50.5,27.7,30.17,West,262,4.0,4.0,41,0.00,CLR,,0.00,162.0,WeatherDisplay:10.37,2014-12-26 16:43:00,
2014-12-26 08:48:00,50.5,27.0,30.17,West,266,6.9,6.9,40,0.00,CLR,,0.00,181.0,WeatherDisplay:10.37,2014-12-26 16:48:00,
2014-12-26 08:53:00,51.1,27.6,30.17,West,261,8.0,8.0,40,0.00,CLR,,0.00,197.0,WeatherDisplay:10.37,2014-12-26 16:53:00,
2014-12-26 08:58:00,51.1,27.6,30.17,WSW,254,11.5,11.5,40,0.00,CLR,,0.00,216.0,WeatherDisplay:10.37,2014-12-26 16:58:00,
2014-12-26 09:03:00,51.3,27.2,30.18,NNW,341,0.0,0.0,39,0.00,CLR,,0.00,232.0,WeatherDisplay:10.37,2014-12-26 17:03:00,
2014-12-26 09:08:00,51.4,28.5,30.18,NW,322,4.6,4.6,41,0.00,CLR,,0.00,250.0,WeatherDisplay:10.37,2014-12-26 17:08:00,
2014-12-26 09:13:00,51.6,27.4,30.18,NNW,340,5.8,5.8,39,0.00,CLR,,0.00,265.0,WeatherDisplay:10.37,2014-12-26 17:13:00,
2014-12-26 09:18:00,51.9,27.7,30.18,North,355,4.6,4.6,39,0.00,CLR,,0.00,281.0,WeatherDisplay:10.37,2014-12-26 17:18:00,
2014-12-26 09:23:00,52.2,28.0,30.18,North,349,5.8,5.8,39,0.00,CLR,,0.00,295.0,WeatherDisplay:10.37,2014-12-26 17:23:00,
2014-12-26 09:28:00,52.3,28.1,30.18,NNW,343,6.9,6.9,39,0.00,CLR,,0.00,308.0,WeatherDisplay:10.37,2014-12-26 17:28:00,
2014-12-26 09:33:00,52.6,27.7,30.18,NNW,344,4.6,4.6,38,0.00,CLR,,0.00,315.0,WeatherDisplay:10.37,2014-12-26 17:33:00,
2014-12-26 09:38:00,52.8,28.5,30.18,NNW,343,2.0,0.0,39,0.00,CLR,,0.00,327.0,WeatherDisplay:10.37,2014-12-26 17:38:00,
2014-12-26 09:43:00,52.9,27.3,30.18,NNW,345,3.5,3.5,37,0.00,CLR,,0.00,339.0,WeatherDisplay:10.37,2014-12-26 17:43:00,
2014-12-26 09:48:00,53.2,27.6,30.19,North,349,6.9,6.9,37,0.00,CLR,,0.00,350.0,WeatherDisplay:10.37,2014-12-26 17:48:00,
2014-12-26 09:53:00,53.5,27.8,30.19,North,349,1.2,1.2,37,0.00,CLR,,0.00,359.0,WeatherDisplay:10.37,2014-12-26 17:53:00,
2014-12-26 09:58:00,53.6,27.9,30.19,North,349,6.0,6.0,37,0.00,CLR,,0.00,369.0,WeatherDisplay:10.37,2014-12-26 17:58:00,
2014-12-26 10:03:00,53.8,27.4,30.20,North,356,3.5,3.5,36,0.00,CLR,,0.00,380.0,WeatherDisplay:10.37,2014-12-26 18:03:00,
2014-12-26 10:08:00,54.2,27.8,30.20,North,356,5.8,5.8,36,0.00,CLR,,0.00,388.0,WeatherDisplay:10.37,2014-12-26 18:08:00,
2014-12-26 10:13:00,54.4,26.6,30.20,North,355,4.6,4.6,34,0.00,CLR,,0.00,396.0,WeatherDisplay:10.37,2014-12-26 18:13:00,
2014-12-26 10:18:00,54.5,26.7,30.20,NNW,347,3.5,3.5,34,0.00,CLR,,0.00,406.0,WeatherDisplay:10.37,2014-12-26 18:18:00,
2014-12-26 10:23:00,55.1,25.7,30.20,North,4,9.2,9.2,32,0.00,CLR,,0.00,415.0,WeatherDisplay:10.37,2014-12-26 18:23:00,
2014-12-26 10:28:00,55.4,26.0,30.20,NNE,15,6.9,6.9,32,0.00,CLR,,0.00,422.0,WeatherDisplay:10.37,2014-12-26 18:28:00,
2014-12-26 10:33:00,55.4,26.0,30.19,North,8,2.3,2.3,32,0.00,CLR,,0.00,431.0,WeatherDisplay:10.37,2014-12-26 18:33:00,
2014-12-26 10:38:00,55.9,25.7,30.19,NNW,343,3.5,3.5,31,0.00,CLR,,0.00,438.0,WeatherDisplay:10.37,2014-12-26 18:38:00,
2014-12-26 10:43:00,55.7,25.5,30.19,NE,37,11.5,11.5,31,0.00,CLR,,0.00,446.0,WeatherDisplay:10.37,2014-12-26 18:43:00,
2014-12-26 10:48:00,55.7,24.7,30.19,NE,39,5.8,5.8,30,0.00,CLR,,0.00,454.0,WeatherDisplay:10.37,2014-12-26 18:48:00,
2014-12-26 10:53:00,55.7,25.5,30.19,North,11,12.7,12.7,31,0.00,CLR,,0.00,459.0,WeatherDisplay:10.37,2014-12-26 18:53:00,
2014-12-26 10:58:00,56.0,25.8,30.19,North,11,4.6,4.6,31,0.00,CLR,,0.00,464.0,WeatherDisplay:10.37,2014-12-26 18:58:00,
2014-12-26 11:03:00,56.3,26.0,30.19,North,10,3.5,3.5,31,0.00,CLR,,0.00,471.0,WeatherDisplay:10.37,2014-12-26 19:03:00,
2014-12-26 11:08:00,56.3,26.0,30.19,NNW,337,6.9,6.9,31,0.00,CLR,,0.00,476.0,WeatherDisplay:10.37,2014-12-26 19:08:00,
2014-12-26 11:13:00,56.5,26.2,30.19,North,356,9.2,9.2,31,0.00,CLR,,0.00,482.0,WeatherDisplay:10.37,2014-12-26 19:13:00,
2014-12-26 11:18:00,56.3,26.0,30.18,North,9,11.5,11.5,31,0.00,CLR,,0.00,483.0,WeatherDisplay:10.37,2014-12-26 19:18:00,
2014-12-26 11:23:00,56.3,26.0,30.18,North,349,5.0,5.1,31,0.00,CLR,,0.00,487.0,WeatherDisplay:10.37,2014-12-26 19:23:00,
2014-12-26 11:28:00,56.3,26.8,30.18,NNE,25,5.8,5.8,32,0.00,CLR,,0.00,492.0,WeatherDisplay:10.37,2014-12-26 19:28:00,
2014-12-26 11:33:00,56.9,27.3,30.18,NNE,15,5.8,5.8,32,0.00,CLR,,0.00,497.0,WeatherDisplay:10.37,2014-12-26 19:33:00,
2014-12-26 11:38:00,57.0,26.6,30.18,North,351,8.1,8.1,31,0.00,CLR,,0.00,501.0,WeatherDisplay:10.37,2014-12-26 19:38:00,
2014-12-26 11:43:00,57.2,26.0,30.18,NE,36,3.5,3.5,30,0.00,CLR,,0.00,503.0,WeatherDisplay:10.37,2014-12-26 19:43:00,
2014-12-26 11:48:00,57.8,25.7,30.17,NW,320,10.0,10.0,29,0.00,CLR,,0.00,503.0,WeatherDisplay:10.37,2014-12-26 19:48:00,
2014-12-26 11:53:00,58.0,25.9,30.17,North,2,4.6,4.6,29,0.00,CLR,,0.00,506.0,WeatherDisplay:10.37,2014-12-26 19:53:00,
2014-12-26 11:58:00,58.0,25.0,30.17,NE,35,6.9,6.9,28,0.00,CLR,,0.00,508.0,WeatherDisplay:10.37,2014-12-26 19:58:00,
2014-12-26 12:03:00,58.0,24.2,30.17,NE,38,13.8,13.8,27,0.00,CLR,,0.00,510.0,WeatherDisplay:10.37,2014-12-26 20:03:00,
2014-12-26 12:08:00,57.6,24.7,30.17,NNE,20,16.1,16.1,28,0.00,CLR,,0.00,510.0,WeatherDisplay:10.37,2014-12-26 20:08:00,
2014-12-26 12:13:00,58.0,24.2,30.17,NNE,25,6.9,6.9,27,0.00,CLR,,0.00,510.0,WeatherDisplay:10.37,2014-12-26 20:13:00,
2014-12-26 12:18:00,57.8,24.9,30.17,North,1,11.5,11.5,28,0.00,CLR,,0.00,510.0,WeatherDisplay:10.37,2014-12-26 20:18:00,
2014-12-26 12:23:00,57.6,23.8,30.17,NNE,20,15.0,15.0,27,0.00,CLR,,0.00,508.0,WeatherDisplay:10.37,2014-12-26 20:23:00,
2014-12-26 12:28:00,57.8,24.0,30.17,NNW,337,11.5,11.5,27,0.00,CLR,,0.00,506.0,WeatherDisplay:10.37,2014-12-26 20:28:00,
2014-12-26 12:33:00,58.0,25.9,30.16,NNW,336,8.1,8.1,29,0.00,CLR,,0.00,506.0,WeatherDisplay:10.37,2014-12-26 20:33:00,
2014-12-26 12:38:00,58.3,24.4,30.16,NNE,25,11.5,11.5,27,0.00,CLR,,0.00,503.0,WeatherDisplay:10.37,2014-12-26 20:38:00,
2014-12-26 12:43:00,58.3,25.3,30.16,NE,39,10.4,10.4,28,0.00,CLR,,0.00,504.0,WeatherDisplay:10.37,2014-12-26 20:43:00,
2014-12-26 12:48:00,58.3,25.3,30.16,NNE,25,11.5,11.5,28,0.00,CLR,,0.00,501.0,WeatherDisplay:10.37,2014-12-26 20:48:00,
2014-12-26 12:53:00,58.3,25.3,30.16,ENE,71,11.5,11.5,28,0.00,CLR,,0.00,497.0,WeatherDisplay:10.37,2014-12-26 20:53:00,
2014-12-26 12:58:00,58.3,25.3,30.16,NNE,25,16.1,16.1,28,0.00,CLR,,0.00,492.0,WeatherDisplay:10.37,2014-12-26 20:58:00,
2014-12-26 13:03:00,58.3,25.3,30.15,North,2,5.8,5.8,28,0.00,CLR,,0.00,489.0,WeatherDisplay:10.37,2014-12-26 21:03:00,
2014-12-26 13:08:00,58.6,25.6,30.15,NE,48,5.8,5.8,28,0.00,CLR,,0.00,483.0,WeatherDisplay:10.37,2014-12-26 21:08:00,
2014-12-26 13:13:00,59.0,25.0,30.15,NNE,33,6.9,6.9,27,0.00,CLR,,0.00,480.0,WeatherDisplay:10.37,2014-12-26 21:13:00,
2014-12-26 13:18:00,59.2,26.1,30.14,NNW,331,13.8,13.8,28,0.00,CLR,,0.00,475.0,WeatherDisplay:10.37,2014-12-26 21:18:00,
2014-12-26 13:23:00,59.0,25.9,30.14,NNE,20,10.4,10.4,28,0.00,CLR,,0.00,466.0,WeatherDisplay:10.37,2014-12-26 21:23:00,
2014-12-26 13:28:00,58.9,25.8,30.14,NNE,31,11.5,11.5,28,0.00,CLR,,0.00,461.0,WeatherDisplay:10.37,2014-12-26 21:28:00,
2014-12-26 13:33:00,59.0,26.8,30.15,North,6,11.5,11.5,29,0.00,CLR,,0.00,455.0,WeatherDisplay:10.37,2014-12-26 21:33:00,
2014-12-26 13:38:00,59.0,27.6,30.15,North,2,10.4,10.4,30,0.00,CLR,,0.00,446.0,WeatherDisplay:10.37,2014-12-26 21:38:00,
2014-12-26 13:43:00,59.2,27.7,30.15,NE,55,8.1,8.1,30,0.00,CLR,,0.00,441.0,WeatherDisplay:10.37,2014-12-26 21:43:00,
2014-12-26 13:48:00,59.0,27.6,30.14,NE,38,11.5,11.5,30,0.00,CLR,,0.00,432.0,WeatherDisplay:10.37,2014-12-26 21:48:00,
2014-12-26 13:53:00,58.7,26.5,30.14,NNW,339,5.8,5.8,29,0.00,CLR,,0.00,425.0,WeatherDisplay:10.37,2014-12-26 21:53:00,
2014-12-26 13:58:00,58.9,25.8,30.14,NE,35,10.4,10.4,28,0.00,CLR,,0.00,418.0,WeatherDisplay:10.37,2014-12-26 21:58:00,
2014-12-26 14:03:00,58.7,25.6,30.14,North,358,12.7,12.7,28,0.00,CLR,,0.00,408.0,WeatherDisplay:10.37,2014-12-26 22:03:00,
2014-12-26 14:08:00,58.7,24.8,30.14,North,6,9.2,9.2,27,0.00,CLR,,0.00,401.0,WeatherDisplay:10.37,2014-12-26 22:08:00,
2014-12-26 14:13:00,58.7,24.8,30.14,NNE,20,11.5,11.5,27,0.00,CLR,,0.00,392.0,WeatherDisplay:10.37,2014-12-26 22:13:00,
2014-12-26 14:18:00,58.7,25.6,30.15,NE,44,11.5,11.5,28,0.00,CLR,,0.00,381.0,WeatherDisplay:10.37,2014-12-26 22:18:00,
2014-12-26 14:23:00,59.0,25.9,30.15,NNE,31,9.2,9.2,28,0.00,CLR,,0.00,373.0,WeatherDisplay:10.37,2014-12-26 22:23:00,
2014-12-26 14:28:00,58.9,24.9,30.15,NNW,343,13.8,13.8,27,0.00,CLR,,0.00,362.0,WeatherDisplay:10.37,2014-12-26 22:28:00,
2014-12-26 14:34:00,58.9,24.9,30.15,North,7,11.5,11.5,27,0.00,CLR,,0.00,352.0,WeatherDisplay:10.37,2014-12-26 22:34:00,
2014-12-26 14:39:00,59.0,25.0,30.15,NE,38,3.5,3.5,27,0.00,CLR,,0.00,341.0,WeatherDisplay:10.37,2014-12-26 22:39:00,
2014-12-26 14:44:00,59.0,25.0,30.15,North,3,12.7,12.7,27,0.00,CLR,,0.00,332.0,WeatherDisplay:10.37,2014-12-26 22:44:00,
2014-12-26 14:49:00,58.9,24.9,30.15,North,356,11.5,11.5,27,0.00,CLR,,0.00,320.0,WeatherDisplay:10.37,2014-12-26 22:49:00,
2014-12-26 14:54:00,58.7,24.8,30.15,North,8,4.0,4.0,27,0.00,CLR,,0.00,309.0,WeatherDisplay:10.37,2014-12-26 22:54:00,
2014-12-26 14:59:00,58.7,26.5,30.15,North,349,6.9,6.9,29,0.00,CLR,,0.00,299.0,WeatherDisplay:10.37,2014-12-26 22:59:00,
2014-12-26 15:04:00,58.4,25.4,30.14,NNW,347,11.5,11.5,28,0.00,CLR,,0.00,287.0,WeatherDisplay:10.37,2014-12-26 23:04:00,
2014-12-26 15:09:00,58.6,25.6,30.14,North,358,5.8,5.8,28,0.00,CLR,,0.00,272.0,WeatherDisplay:10.37,2014-12-26 23:09:00,
2014-12-26 15:14:00,58.9,25.8,30.14,NE,39,2.3,2.3,28,0.00,CLR,,0.00,260.0,WeatherDisplay:10.37,2014-12-26 23:14:00,
2014-12-26 15:19:00,58.9,25.8,30.15,NNE,25,2.3,2.3,28,0.00,CLR,,0.00,246.0,WeatherDisplay:10.37,2014-12-26 23:19:00,
2014-12-26 15:24:00,58.7,25.6,30.15,NNE,15,9.2,9.2,28,0.00,CLR,,0.00,234.0,WeatherDisplay:10.37,2014-12-26 23:24:00,
2014-12-26 15:29:00,58.7,26.5,30.15,NNE,20,3.5,3.5,29,0.00,CLR,,0.00,216.0,WeatherDisplay:10.37,2014-12-26 23:29:00,
2014-12-26 15:34:00,58.7,26.5,30.15,NNE,20,0.0,0.0,29,0.00,CLR,,0.00,199.0,WeatherDisplay:10.37,2014-12-26 23:34:00,
2014-12-26 15:39:00,58.7,24.8,30.15,ENE,61,4.6,4.6,27,0.00,CLR,,0.00,183.0,WeatherDisplay:10.37,2014-12-26 23:39:00,
2014-12-26 15:44:00,58.6,25.6,30.15,NE,45,2.3,2.3,28,0.00,CLR,,0.00,165.0,WeatherDisplay:10.37,2014-12-26 23:44:00,
2014-12-26 15:49:00,58.6,27.2,30.16,NE,51,3.5,3.5,30,0.00,CLR,,0.00,148.0,WeatherDisplay:10.37,2014-12-26 23:49:00,
2014-12-26 15:54:00,58.4,26.2,30.16,NE,52,5.8,5.8,29,0.00,CLR,,0.00,130.0,WeatherDisplay:10.37,2014-12-26 23:54:00,
2014-12-26 15:59:00,58.1,26.0,30.16,ENE,69,10.4,10.4,29,0.00,CLR,,0.00,113.0,WeatherDisplay:10.37,2014-12-26 23:59:00,
2014-12-26 16:04:00,58.0,25.9,30.16,NE,56,9.2,9.2,29,0.00,CLR,,0.00,97.0,WeatherDisplay:10.37,2014-12-27 00:04:00,
2014-12-26 16:09:00,57.8,25.7,30.16,NNE,25,10.4,10.4,29,0.00,CLR,,0.00,79.0,WeatherDisplay:10.37,2014-12-27 00:09:00,
2014-12-26 16:14:00,57.5,25.5,30.16,NE,45,9.2,9.2,29,0.00,CLR,,0.00,67.0,WeatherDisplay:10.37,2014-12-27 00:14:00,
2014-12-26 16:19:00,57.5,25.5,30.16,NE,45,3.5,3.5,29,0.00,CLR,,0.00,54.0,WeatherDisplay:10.37,2014-12-27 00:19:00,
2014-12-26 16:24:00,57.5,27.1,30.16,NE,45,0.0,0.0,31,0.00,CLR,,0.00,40.0,WeatherDisplay:10.37,2014-12-27 00:24:00,
2014-12-26 16:29:00,57.3,26.1,30.16,ENE,75,5.8,5.8,30,0.00,CLR,,0.00,32.0,WeatherDisplay:10.37,2014-12-27 00:29:00,
2014-12-26 16:34:00,57.0,27.4,30.16,East,87,2.3,2.3,32,0.00,CLR,,0.00,21.0,WeatherDisplay:10.37,2014-12-27 00:34:00,
2014-12-26 16:39:00,56.7,27.9,30.16,East,83,3.5,3.5,33,0.00,CLR,,0.00,14.0,WeatherDisplay:10.37,2014-12-27 00:39:00,
2014-12-26 16:44:00,56.3,27.5,30.16,NE,53,4.6,4.6,33,0.00,CLR,,0.00,11.0,WeatherDisplay:10.37,2014-12-27 00:44:00,
2014-12-26 16:49:00,56.0,28.0,30.16,NE,54,2.3,2.3,34,0.00,CLR,,0.00,9.0,WeatherDisplay:10.37,2014-12-27 00:49:00,
2014-12-26 16:54:00,55.7,27.7,30.16,NE,54,0.0,0.1,34,0.00,CLR,,0.00,7.0,WeatherDisplay:10.37,2014-12-27 00:54:00,
2014-12-26 16:59:00,55.4,27.5,30.16,NE,54,3.5,3.5,34,0.00,CLR,,0.00,5.0,WeatherDisplay:10.37,2014-12-27 00:59:00,
2014-12-26 17:04:00,55.3,27.4,30.16,NE,54,3.5,3.5,34,0.00,CLR,,0.00,0.0,WeatherDisplay:10.37,2014-12-27 01:04:00,
2014-12-26 17:09:00,55.1,27.2,30.16,NE,54,1.0,1.0,34,0.00,CLR,,0.00,0.0,WeatherDisplay:10.37,2014-12-27 01:09:00,
2014-12-26 17:14:00,55.0,27.8,30.16,NE,54,0.0,0.0,35,0.00,CLR,,0.00,0.0,WeatherDisplay:10.37,2014-12-27 01:14:00,
2014-12-26 17:19:00,54.7,28.2,30.16,NE,54,0.0,0.0,36,0.00,CLR,,0.00,0.0,WeatherDisplay:10.37,2014-12-27 01:19:00,
2014-12-26 17:24:00,54.4,28.6,30.16,NE,54,1.2,0.0,37,0.00,CLR,,0.00,0.0,WeatherDisplay:10.37,2014-12-27 01:24:00,
2014-12-26 17:29:00,54.1,29.0,30.16,NE,54,2.3,2.3,38,0.00,CLR,,0.00,0.0,WeatherDisplay:10.37,2014-12-27 01:29:00,
2014-12-26 17:34:00,53.8,28.8,30.16,NE,54,0.0,0.0,38,0.00,CLR,,0.00,0.0,WeatherDisplay:10.37,2014-12-27 01:34:00,
2014-12-26 17:39:00,53.5,29.1,30.16,NE,54,0.0,0.0,39,0.00,CLR,,0.00,0.0,WeatherDisplay:10.37,2014-12-27 01:39:00,
2014-12-26 17:44:00,53.1,29.4,30.16,NE,54,1.2,1.2,40,0.00,CLR,,0.00,0.0,WeatherDisplay:10.37,2014-12-27 01:44:00,
2014-12-26 17:49:00,52.8,29.1,30.16,NE,54,0.0,0.0,40,0.00,CLR,,0.00,0.0,WeatherDisplay:10.37,2014-12-27 01:49:00,
2014-12-26 17:54:00,52.6,29.5,30.16,NE,54,0.0,0.0,41,0.00,CLR,,0.00,0.0,WeatherDisplay:10.37,2014-12-27 01:54:00,
2014-12-26 17:59:00,52.5,29.5,30.16,NE,54,2.3,0.0,41,0.00,CLR,,0.00,0.0,WeatherDisplay:10.37,2014-12-27 01:59:00,
2014-12-26 18:04:00,52.5,29.5,30.17,NE,54,0.0,0.0,41,0.00,CLR,,0.00,0.0,WeatherDisplay:10.37,2014-12-27 02:04:00,
2014-12-26 18:09:00,52.3,29.3,30.17,NE,54,0.0,0.0,41,0.00,CLR,,0.00,0.0,WeatherDisplay:10.37,2014-12-27 02:09:00,
2014-12-26 18:14:00,52.2,29.8,30.17,NE,54,0.0,0.0,42,0.00,CLR,,0.00,0.0,WeatherDisplay:10.37,2014-12-27 02:14:00,
2014-12-26 18:19:00,51.9,30.6,30.17,NE,54,0.0,0.0,44,0.00,CLR,,0.00,0.0,WeatherDisplay:10.37,2014-12-27 02:19:00,
2014-12-26 18:24:00,51.6,30.9,30.17,NE,54,0.0,0.0,45,0.00,CLR,,0.00,0.0,WeatherDisplay:10.37,2014-12-27 02:24:00,
2014-12-26 18:29:00,51.3,30.7,30.17,NE,54,0.0,0.0,45,0.00,CLR,,0.00,0.0,WeatherDisplay:10.37,2014-12-27 02:29:00,
2014-12-26 18:34:00,51.0,30.4,30.18,NE,54,0.0,0.0,45,0.00,CLR,,0.00,0.0,WeatherDisplay:10.37,2014-12-27 02:34:00,
2014-12-26 18:39:00,50.7,30.7,30.18,NE,54,0.0,0.0,46,0.00,CLR,,0.00,0.0,WeatherDisplay:10.37,2014-12-27 02:39:00,
2014-12-26 18:44:00,50.4,30.9,30.18,NE,54,0.0,0.0,47,0.00,CLR,,0.00,0.0,WeatherDisplay:10.37,2014-12-27 02:44:00,
2014-12-26 18:49:00,50.1,31.2,30.18,NE,54,0.0,0.0,48,0.00,CLR,,0.00,0.0,WeatherDisplay:10.37,2014-12-27 02:49:00,
2014-12-26 18:54:00,49.6,30.7,30.18,NE,54,0.0,0.0,48,0.00,CLR,,0.00,0.0,WeatherDisplay:10.37,2014-12-27 02:54:00,
2014-12-26 18:59:00,49.2,31.3,30.18,NE,54,0.0,0.0,50,0.00,CLR,,0.00,0.0,WeatherDisplay:10.37,2014-12-27 02:59:00,
2014-12-26 19:04:00,49.1,31.7,30.19,NE,54,0.0,0.0,51,0.00,CLR,,0.00,0.0,WeatherDisplay:10.37,2014-12-27 03:04:00,
2014-12-26 19:09:00,48.8,31.9,30.19,NE,54,0.0,0.0,52,0.00,CLR,,0.00,0.0,WeatherDisplay:10.37,2014-12-27 03:09:00,
2014-12-26 19:14:00,48.3,31.9,30.19,NE,54,0.0,0.0,53,0.00,CLR,,0.00,0.0,WeatherDisplay:10.37,2014-12-27 03:14:00,
2014-12-26 19:19:00,47.9,32.0,30.19,NE,54,0.0,0.0,54,0.00,CLR,,0.00,0.0,WeatherDisplay:10.37,2014-12-27 03:19:00,
2014-12-26 19:24:00,47.6,32.2,30.19,NE,54,0.0,0.0,55,0.00,CLR,,0.00,0.0,WeatherDisplay:10.37,2014-12-27 03:24:00,
2014-12-26 19:29:00,47.4,32.5,30.19,NE,54,0.0,0.0,56,0.00,CLR,,0.00,0.0,WeatherDisplay:10.37,2014-12-27 03:29:00,
2014-12-26 19:34:00,47.3,31.5,30.20,NE,54,0.0,0.0,54,0.00,CLR,,0.00,0.0,WeatherDisplay:10.37,2014-12-27 03:34:00,
2014-12-26 19:39:00,47.3,31.9,30.20,NE,54,2.3,2.3,55,0.00,CLR,,0.00,0.0,WeatherDisplay:10.37,2014-12-27 03:39:00,
2014-12-26 19:44:00,47.1,31.3,30.20,NE,54,0.0,0.0,54,0.00,CLR,,0.00,0.0,WeatherDisplay:10.37,2014-12-27 03:44:00,
2014-12-26 19:49:00,46.8,32.4,30.20,NE,54,2.3,2.3,57,0.00,CLR,,0.00,0.0,WeatherDisplay:10.37,2014-12-27 03:49:00,
2014-12-26 19:54:00,46.5,32.5,30.20,NE,54,0.0,0.0,58,0.00,CLR,,0.00,0.0,WeatherDisplay:10.37,2014-12-27 03:54:00,
2014-12-26 19:59:00,46.2,31.8,30.20,NE,54,0.0,0.0,57,0.00,CLR,,0.00,0.0,WeatherDisplay:10.37,2014-12-27 03:59:00,
2014-12-26 20:04:00,46.1,31.3,30.20,NE,55,0.0,0.0,56,0.00,CLR,,0.00,0.0,WeatherDisplay:10.37,2014-12-27 04:04:00,
2014-12-26 20:09:00,46.2,31.8,30.20,NE,54,0.0,0.0,57,0.00,CLR,,0.00,0.0,WeatherDisplay:10.37,2014-12-27 04:09:00,
2014-12-26 20:14:00,46.2,31.4,30.20,NE,54,0.0,0.0,56,0.00,CLR,,0.00,0.0,WeatherDisplay:10.37,2014-12-27 04:14:00,
2014-12-26 20:19:00,46.5,31.2,30.20,NE,54,0.0,0.0,55,0.00,CLR,,0.00,0.0,WeatherDisplay:10.37,2014-12-27 04:19:00,
2014-12-26 20:24:00,46.7,31.8,30.20,NE,54,0.0,0.0,56,0.00,CLR,,0.00,0.0,WeatherDisplay:10.37,2014-12-27 04:24:00,
2014-12-26 20:29:00,46.5,31.6,30.20,NE,55,0.0,0.0,56,0.00,CLR,,0.00,0.0,WeatherDisplay:10.37,2014-12-27 04:29:00,
2014-12-26 20:34:00,46.5,31.6,30.21,NE,55,0.0,0.0,56,0.00,CLR,,0.00,0.0,WeatherDisplay:10.37,2014-12-27 04:34:00,
2014-12-26 20:39:00,46.4,32.4,30.21,NE,55,0.0,0.0,58,0.00,CLR,,0.00,0.0,WeatherDisplay:10.37,2014-12-27 04:39:00,
2014-12-26 20:44:00,46.1,31.7,30.21,NE,54,0.0,0.0,57,0.00,CLR,,0.00,0.0,WeatherDisplay:10.37,2014-12-27 04:44:00,
2014-12-26 20:49:00,45.5,32.0,30.22,NE,55,3.5,3.5,59,0.00,CLR,,0.00,0.0,WeatherDisplay:10.37,2014-12-27 04:49:00,
2014-12-26 20:54:00,44.9,31.8,30.22,NE,55,0.0,0.0,60,0.00,CLR,,0.00,0.0,WeatherDisplay:10.37,2014-12-27 04:54:00,
2014-12-26 20:59:00,44.6,32.0,30.22,NE,55,0.0,0.0,61,0.00,CLR,,0.00,0.0,WeatherDisplay:10.37,2014-12-27 04:59:00,
2014-12-26 21:04:00,45.1,32.0,30.22,NE,54,0.0,0.3,60,0.00,CLR,,0.00,0.0,WeatherDisplay:10.37,2014-12-27 05:04:00,
2014-12-26 21:09:00,45.1,32.0,30.22,NE,55,0.0,0.0,60,0.00,CLR,,0.00,0.0,WeatherDisplay:10.37,2014-12-27 05:09:00,
2014-12-26 21:14:00,45.2,32.1,30.22,NE,55,0.0,0.0,60,0.00,CLR,,0.00,0.0,WeatherDisplay:10.37,2014-12-27 05:14:00,
2014-12-26 21:19:00,44.8,32.2,30.21,NE,54,0.0,0.0,61,0.00,CLR,,0.00,0.0,WeatherDisplay:10.37,2014-12-27 05:19:00,
2014-12-26 21:24:00,44.3,32.1,30.21,NE,54,0.0,0.0,62,0.00,CLR,,0.00,0.0,WeatherDisplay:10.37,2014-12-27 05:24:00,
2014-12-26 21:29:00,43.9,31.7,30.21,NE,54,0.0,0.0,62,0.00,CLR,,0.00,0.0,WeatherDisplay:10.37,2014-12-27 05:29:00,
2014-12-26 21:34:00,43.8,32.0,30.22,NE,55,0.0,0.0,63,0.00,CLR,,0.00,0.0,WeatherDisplay:10.37,2014-12-27 05:34:00,
2014-12-26 21:39:00,43.9,32.1,30.22,NE,54,0.0,0.0,63,0.00,CLR,,0.00,0.0,WeatherDisplay:10.37,2014-12-27 05:39:00,
2014-12-26 21:44:00,43.6,32.2,30.22,NE,54,0.0,0.0,64,0.00,CLR,,0.00,0.0,WeatherDisplay:10.37,2014-12-27 05:44:00,
2014-12-26 21:49:00,43.6,32.2,30.22,NE,55,0.0,0.0,64,0.00,CLR,,0.00,0.0,WeatherDisplay:10.37,2014-12-27 05:49:00,
2014-12-26 21:54:00,43.5,32.1,30.22,NE,54,0.0,0.0,64,0.00,CLR,,0.00,0.0,WeatherDisplay:10.37,2014-12-27 05:54:00,
2014-12-26 21:59:00,43.3,31.9,30.22,NE,54,0.0,0.0,64,0.00,CLR,,0.00,0.0,WeatherDisplay:10.37,2014-12-27 05:59:00,
2014-12-26 22:04:00,43.2,32.2,30.22,WNW,293,4.6,4.6,65,0.00,CLR,,0.00,0.0,WeatherDisplay:10.37,2014-12-27 06:04:00,
2014-12-26 22:09:00,43.3,32.7,30.22,WNW,293,3.0,3.0,66,0.00,CLR,,0.00,0.0,WeatherDisplay:10.37,2014-12-27 06:09:00,
2014-12-26 22:14:00,43.5,32.9,30.22,WNW,293,0.0,0.0,66,0.00,CLR,,0.00,0.0,WeatherDisplay:10.37,2014-12-27 06:14:00,
2014-12-26 22:19:00,43.6,33.4,30.23,WNW,293,0.0,0.0,67,0.00,CLR,,0.00,0.0,WeatherDisplay:10.37,2014-12-27 06:19:00,
2014-12-26 22:24:00,43.8,33.6,30.23,WNW,293,0.0,0.0,67,0.00,CLR,,0.00,0.0,WeatherDisplay:10.37,2014-12-27 06:24:00,